| time (UTC) | temp F | wind direction | speed MPH | gust MPH | rain 1hr in | rain 24hr in | rain mn in | humidity % | barometer mb |
| 20260505011040 | 66 | 153 | 4.0 | 5.0 | 0.00 | 0.00 | 0.00 | 57 | 1005.1 |
| 20260505010535 | 66 | 145 | 2.0 | 2.0 | 0.00 | 0.00 | 0.00 | 57 | 1005.2 |
| 20260505010032 | 66 | 143 | 2.0 | 4.0 | 0.00 | 0.00 | 0.00 | 56 | 1005.2 |
| 20260505005528 | 66 | 151 | 0.0 | 2.0 | 0.00 | 0.00 | 0.00 | 55 | 1004.8 |
| 20260505005026 | 67 | 110 | 2.0 | 3.0 | 0.00 | 0.00 | 0.00 | 55 | 1004.7 |
| 20260505004523 | 67 | 131 | 2.0 | 3.0 | 0.00 | 0.00 | 0.00 | 54 | 1005.0 |
| 20260505004020 | 68 | 147 | 3.0 | 4.0 | 0.00 | 0.00 | 0.00 | 54 | 1004.9 |
| 20260505003517 | 68 | 134 | 4.0 | 6.0 | 0.00 | 0.00 | 0.00 | 53 | 1004.8 |
| 20260505003014 | 69 | 136 | 6.0 | 11.0 | 0.00 | 0.00 | 0.00 | 53 | 1004.8 |
| 20260505002509 | 69 | 166 | 8.0 | 11.0 | 0.00 | 0.00 | 0.00 | 51 | 1004.8 |
| 20260505002008 | 69 | 154 | 9.0 | 13.0 | 0.00 | 0.00 | 0.00 | 51 | 1004.9 |
| 20260505001505 | 69 | 152 | 10.0 | 14.0 | 0.00 | 0.00 | 0.00 | 50 | 1004.8 |
| 20260505001002 | 70 | 136 | 14.0 | 17.0 | 0.00 | 0.00 | 0.00 | 49 | 1004.8 |
| 20260505000500 | 70 | 150 | 6.0 | 11.0 | 0.00 | 0.00 | 0.00 | 49 | 1004.7 |
| 20260504235957 | 70 | 159 | 9.0 | 16.0 | 0.00 | 0.00 | 0.00 | 49 | 1004.6 |
| 20260504235454 | 70 | 161 | 11.0 | 13.0 | 0.00 | 0.00 | 0.00 | 49 | 1004.8 |
| 20260504234950 | 70 | 143 | 9.0 | 14.0 | 0.00 | 0.00 | 0.00 | 49 | 1004.5 |
| 20260504234448 | 70 | 145 | 10.0 | 17.0 | 0.00 | 0.00 | 0.00 | 49 | 1004.5 |
| 20260504233944 | 71 | 141 | 10.0 | 17.0 | 0.00 | 0.00 | 0.00 | 48 | 1004.3 |
| 20260504233440 | 71 | 150 | 12.0 | 14.0 | 0.00 | 0.00 | 0.00 | 48 | 1004.3 |
| 20260504232937 | 71 | 158 | 7.0 | 14.0 | 0.00 | 0.00 | 0.00 | 47 | 1004.6 |
| 20260504232434 | 71 | 141 | 14.0 | 14.0 | 0.00 | 0.00 | 0.00 | 47 | 1004.5 |
| 20260504231931 | 71 | 156 | 12.0 | 23.0 | 0.00 | 0.00 | 0.00 | 46 | 1004.2 |
| 20260504231427 | 72 | 154 | 11.0 | 27.0 | 0.00 | 0.00 | 0.00 | 45 | 1004.3 |
| 20260504230924 | 72 | 157 | 13.0 | 21.0 | 0.00 | 0.00 | 0.00 | 45 | 1004.4 |
| 20260504230421 | 72 | 136 | 16.0 | 26.0 | 0.00 | 0.00 | 0.00 | 43 | 1004.5 |
| 20260504225920 | 72 | 151 | 13.0 | 18.0 | 0.00 | 0.00 | 0.00 | 44 | 1004.3 |
| 20260504225416 | 72 | 145 | 11.0 | 19.0 | 0.00 | 0.00 | 0.00 | 44 | 1004.4 |
| 20260504224914 | 72 | 145 | 15.0 | 21.0 | 0.00 | 0.00 | 0.00 | 44 | 1004.2 |
| 20260504224410 | 72 | 138 | 18.0 | 18.0 | 0.00 | 0.00 | 0.00 | 44 | 1004.3 |
| 20260504223907 | 73 | 134 | 13.0 | 20.0 | 0.00 | 0.00 | 0.00 | 43 | 1004.1 |
| 20260504223402 | 73 | 137 | 9.0 | 16.0 | 0.00 | 0.00 | 0.00 | 42 | 1004.2 |
| 20260504222859 | 74 | 138 | 11.0 | 15.0 | 0.00 | 0.00 | 0.00 | 42 | 1004.0 |
| 20260504222355 | 74 | 146 | 9.0 | 20.0 | 0.00 | 0.00 | 0.00 | 41 | 1004.1 |
| 20260504221854 | 74 | 146 | 9.0 | 15.0 | 0.00 | 0.00 | 0.00 | 41 | 1004.0 |
| 20260504221350 | 75 | 146 | 9.0 | 16.0 | 0.00 | 0.00 | 0.00 | 40 | 1003.9 |
| 20260504220848 | 75 | 146 | 19.0 | 21.0 | 0.00 | 0.00 | 0.00 | 39 | 1003.9 |
| 20260504220344 | 76 | 141 | 14.0 | 15.0 | 0.00 | 0.00 | 0.00 | 40 | 1003.8 |
| 20260504215842 | 75 | 169 | 8.0 | 19.0 | 0.00 | 0.00 | 0.00 | 40 | 1003.9 |
| 20260504215338 | 76 | 136 | 11.0 | 12.0 | 0.00 | 0.00 | 0.00 | 40 | 1003.9 |
| 20260504214834 | 76 | 154 | 7.0 | 14.0 | 0.00 | 0.00 | 0.00 | 41 | 1004.0 |
| 20260504214331 | 76 | 142 | 13.0 | 18.0 | 0.00 | 0.00 | 0.00 | 38 | 1003.9 |
| 20260504213828 | 76 | 138 | 13.0 | 16.0 | 0.00 | 0.00 | 0.00 | 37 | 1003.8 |
| 20260504213323 | 76 | 137 | 12.0 | 15.0 | 0.00 | 0.00 | 0.00 | 37 | 1003.8 |
| 20260504212821 | 76 | 174 | 11.0 | 15.0 | 0.00 | 0.00 | 0.00 | 36 | 1003.6 |
| 20260504212317 | 76 | 167 | 14.0 | 20.0 | 0.00 | 0.00 | 0.00 | 37 | 1004.0 |
| 20260504211815 | 77 | 175 | 10.0 | 12.0 | 0.00 | 0.00 | 0.00 | 37 | 1003.5 |
| 20260504211311 | 76 | 162 | 9.0 | 15.0 | 0.00 | 0.00 | 0.00 | 38 | 1003.5 |
| 20260504210808 | 76 | 130 | 12.0 | 15.0 | 0.00 | 0.00 | 0.00 | 38 | 1003.8 |
| 20260504210306 | 76 | 141 | 14.0 | 18.0 | 0.00 | 0.00 | 0.00 | 38 | 1003.5 |
| 20260504205803 | 76 | 126 | 5.0 | 12.0 | 0.00 | 0.00 | 0.00 | 39 | 1003.6 |
| 20260504205300 | 76 | 124 | 4.0 | 15.0 | 0.00 | 0.00 | 0.00 | 39 | 1003.7 |
| 20260504204758 | 77 | 146 | 13.0 | 13.0 | 0.00 | 0.00 | 0.00 | 38 | 1003.6 |
| 20260504204256 | 77 | 54 | 3.0 | 16.0 | 0.00 | 0.00 | 0.00 | 38 | 1003.8 |
| 20260504203755 | 78 | 133 | 6.0 | 11.0 | 0.00 | 0.00 | 0.00 | 36 | 1003.8 |
| 20260504203252 | 77 | 147 | 3.0 | 12.0 | 0.00 | 0.00 | 0.00 | 39 | 1003.8 |
| 20260504202752 | 76 | 131 | 12.0 | 19.0 | 0.00 | 0.00 | 0.00 | 38 | 1004.0 |
| 20260504202250 | 76 | 141 | 12.0 | 19.0 | 0.00 | 0.00 | 0.00 | 39 | 1003.9 |
| 20260504201747 | 76 | 136 | 2.0 | 17.0 | 0.00 | 0.00 | 0.00 | 38 | 1003.8 |
| 20260504201244 | 76 | 139 | 11.0 | 13.0 | 0.00 | 0.00 | 0.00 | 39 | 1004.1 |
| 20260504200742 | 75 | 153 | 7.0 | 18.0 | 0.00 | 0.00 | 0.00 | 38 | 1004.0 |
| 20260504200237 | 77 | 148 | 2.0 | 8.0 | 0.00 | 0.00 | 0.00 | 37 | 1003.9 |
| 20260504195734 | 75 | 145 | 9.0 | 14.0 | 0.00 | 0.00 | 0.00 | 37 | 1004.2 |
| 20260504195230 | 75 | 146 | 8.0 | 21.0 | 0.00 | 0.00 | 0.00 | 38 | 1004.2 |
| 20260504194728 | 76 | 154 | 11.0 | 18.0 | 0.00 | 0.00 | 0.00 | 38 | 1004.5 |
| 20260504194223 | 76 | 138 | 12.0 | 12.0 | 0.00 | 0.00 | 0.00 | 35 | 1004.4 |
| 20260504193720 | 77 | 121 | 2.0 | 6.0 | 0.00 | 0.00 | 0.00 | 37 | 1004.5 |
| 20260504193218 | 76 | 133 | 9.0 | 16.0 | 0.00 | 0.00 | 0.00 | 36 | 1004.6 |
| 20260504192716 | 76 | 134 | 17.0 | 19.0 | 0.00 | 0.00 | 0.00 | 36 | 1004.6 |
| 20260504192213 | 76 | 139 | 12.0 | 15.0 | 0.00 | 0.00 | 0.00 | 37 | 1004.6 |
| 20260504191712 | 77 | 151 | 10.0 | 13.0 | 0.00 | 0.00 | 0.00 | 37 | 1004.8 |
| 20260504191209 | 74 | 139 | 8.0 | 17.0 | 0.00 | 0.00 | 0.00 | 40 | 1005.1 |
| 20260504190704 | 75 | 172 | 8.0 | 15.0 | 0.00 | 0.00 | 0.00 | 36 | 1005.2 |
| 20260504190200 | 74 | 146 | 12.0 | 17.0 | 0.00 | 0.00 | 0.00 | 38 | 1005.0 |
| 20260504185657 | 75 | 153 | 11.0 | 16.0 | 0.00 | 0.00 | 0.00 | 38 | 1005.0 |
| 20260504185153 | 74 | 179 | 9.0 | 19.0 | 0.00 | 0.00 | 0.00 | 35 | 1005.1 |
| 20260504184650 | 74 | 146 | 19.0 | 25.0 | 0.00 | 0.00 | 0.00 | 37 | 1005.2 |
| 20260504184145 | 73 | 170 | 4.0 | 15.0 | 0.00 | 0.00 | 0.00 | 39 | 1005.4 |
| 20260504183642 | 74 | 134 | 3.0 | 13.0 | 0.00 | 0.00 | 0.00 | 41 | 1005.4 |
| 20260504183139 | 73 | 154 | 15.0 | 25.0 | 0.00 | 0.00 | 0.00 | 39 | 1005.6 |
| 20260504182637 | 73 | 154 | 13.0 | 16.0 | 0.00 | 0.00 | 0.00 | 40 | 1005.4 |
| 20260504182134 | 73 | 145 | 3.0 | 7.0 | 0.00 | 0.00 | 0.00 | 40 | 1005.6 |
| 20260504181632 | 72 | 146 | 10.0 | 20.0 | 0.00 | 0.00 | 0.00 | 41 | 1005.7 |
| 20260504181129 | 73 | 40 | 4.0 | 18.0 | 0.00 | 0.00 | 0.00 | 40 | 1006.0 |
| 20260504180628 | 73 | 136 | 13.0 | 21.0 | 0.00 | 0.00 | 0.00 | 37 | 1005.8 |
| 20260504180126 | 72 | 162 | 6.0 | 15.0 | 0.00 | 0.00 | 0.00 | 41 | 1006.0 |
| 20260504175623 | 72 | 158 | 5.0 | 17.0 | 0.00 | 0.00 | 0.00 | 38 | 1006.0 |
| 20260504175120 | 72 | 128 | 2.0 | 18.0 | 0.00 | 0.00 | 0.00 | 44 | 1006.0 |
| 20260504174618 | 73 | 134 | 10.0 | 11.0 | 0.00 | 0.00 | 0.00 | 40 | 1006.2 |
| 20260504174114 | 73 | 125 | 6.0 | 10.0 | 0.00 | 0.00 | 0.00 | 39 | 1006.5 |
| 20260504173611 | 73 | 137 | 9.0 | 14.0 | 0.00 | 0.00 | 0.00 | 40 | 1006.5 |
| 20260504173109 | 73 | 35 | 4.0 | 9.0 | 0.00 | 0.00 | 0.00 | 39 | 1006.5 |
| 20260504172605 | 73 | 128 | 6.0 | 8.0 | 0.00 | 0.00 | 0.00 | 40 | 1006.5 |
| 20260504172102 | 73 | 117 | 4.0 | 11.0 | 0.00 | 0.00 | 0.00 | 40 | 1006.5 |
| 20260504171558 | 71 | 137 | 8.0 | 14.0 | 0.00 | 0.00 | 0.00 | 38 | 1006.6 |
| 20260504171055 | 72 | 133 | 5.0 | 9.0 | 0.00 | 0.00 | 0.00 | 40 | 1006.6 |
| 20260504170551 | 72 | 134 | 5.0 | 9.0 | 0.00 | 0.00 | 0.00 | 41 | 1006.6 |
| 20260504150935 | 66 | 151 | 14.0 | 14.0 | 0.00 | 0.00 | 0.00 | 43 | 1008.0 |
| 20260504150432 | 67 | 126 | 4.0 | 5.0 | 0.00 | 0.00 | 0.00 | 45 | 1008.2 |
| 20260504140858 | 64 | 128 | 7.0 | 10.0 | 0.00 | 0.00 | 0.00 | 46 | 1008.4 |
| 20260504140354 | 63 | 143 | 9.0 | 13.0 | 0.00 | 0.00 | 0.00 | 46 | 1008.6 |
| 20260504130319 | 57 | 30 | 4.0 | 4.0 | 0.00 | 0.00 | 0.00 | 66 | 1008.7 |
| 20260504120243 | 49 | 126 | 2.0 | 3.0 | 0.00 | 0.00 | 0.00 | 77 | 1009.7 |
| 20260504110710 | 42 | 80 | 1.0 | 2.0 | 0.00 | 0.00 | 0.00 | 94 | 1009.9 |
| 20260504110207 | 42 | 64 | 2.0 | 3.0 | 0.00 | 0.00 | 0.00 | 95 | 1009.7 |
| 20260504100131 | 41 | 137 | 2.0 | 3.0 | 0.00 | 0.00 | 0.00 | 93 | 1009.8 |
| 20260504081524 | 42 | 93 | 1.0 | 2.0 | 0.00 | 0.00 | 0.00 | 87 | 1009.9 |
| 20260504081019 | 42 | 136 | 2.0 | 2.0 | 0.00 | 0.00 | 0.00 | 87 | 1010.0 |
| 20260504080516 | 42 | 104 | 2.0 | 3.0 | 0.00 | 0.00 | 0.00 | 87 | 1009.9 |
| 20260504050335 | 41 | 42 | 2.0 | 2.0 | 0.00 | 0.00 | 0.00 | 84 | 1010.4 |
| 20260504045832 | 41 | 66 | 0.0 | 1.0 | 0.00 | 0.00 | 0.00 | 84 | 1010.3 |
| 20260504045332 | 41 | 141 | 0.0 | 1.0 | 0.00 | 0.00 | 0.00 | 84 | 1010.5 |
| 20260504044829 | 41 | 235 | 0.0 | 1.0 | 0.00 | 0.00 | 0.00 | 83 | 1010.5 |
| 20260504044326 | 41 | 18 | 0.0 | 2.0 | 0.00 | 0.00 | 0.00 | 83 | 1010.4 |
| 20260504043824 | 41 | 11 | 0.0 | 2.0 | 0.00 | 0.00 | 0.00 | 83 | 1010.4 |
| 20260504043320 | 40 | 284 | 2.0 | 2.0 | 0.00 | 0.00 | 0.00 | 86 | 1010.4 |
| 20260504042818 | 40 | 354 | 0.0 | 2.0 | 0.00 | 0.00 | 0.00 | 86 | 1010.3 |
| 20260504042314 | 40 | 1 | 2.0 | 2.0 | 0.00 | 0.00 | 0.00 | 86 | 1010.3 |
| 20260504041810 | 40 | 320 | 0.0 | 2.0 | 0.00 | 0.00 | 0.00 | 87 | 1010.5 |
| 20260504041307 | 40 | 329 | 0.0 | 1.0 | 0.00 | 0.00 | 0.00 | 86 | 1010.3 |
| 20260504040803 | 40 | 44 | 2.0 | 3.0 | 0.00 | 0.00 | 0.00 | 84 | 1010.4 |
| 20260504040301 | 40 | 334 | 1.0 | 2.0 | 0.00 | 0.00 | 0.00 | 84 | 1010.2 |
| 20260504035756 | 40 | 350 | 1.0 | 2.0 | 0.00 | 0.00 | 0.00 | 85 | 1010.3 |
| 20260504035254 | 40 | 209 | 0.0 | 1.0 | 0.00 | 0.00 | 0.00 | 86 | 1010.3 |
| 20260504034751 | 40 | 293 | 0.0 | 1.0 | 0.00 | 0.00 | 0.00 | 84 | 1010.3 |
| 20260504034248 | 40 | 55 | 1.0 | 2.0 | 0.00 | 0.00 | 0.00 | 84 | 1010.3 |
| 20260504033746 | 40 | 50 | 2.0 | 2.0 | 0.00 | 0.00 | 0.00 | 84 | 1010.1 |
| 20260504033243 | 40 | 38 | 2.0 | 4.0 | 0.00 | 0.00 | 0.00 | 84 | 1010.2 |
| 20260504032740 | 40 | 64 | 2.0 | 3.0 | 0.00 | 0.00 | 0.00 | 84 | 1010.1 |
| 20260504032237 | 41 | 33 | 2.0 | 3.0 | 0.00 | 0.00 | 0.00 | 82 | 1010.4 |
| 20260504031733 | 41 | 53 | 0.0 | 1.0 | 0.00 | 0.00 | 0.00 | 80 | 1010.4 |
| 20260504031231 | 41 | 19 | 1.0 | 2.0 | 0.00 | 0.00 | 0.00 | 81 | 1010.4 |
| 20260504030727 | 41 | 345 | 0.0 | 1.0 | 0.00 | 0.00 | 0.00 | 81 | 1010.4 |
| 20260504030224 | 41 | 48 | 0.0 | 2.0 | 0.00 | 0.00 | 0.00 | 80 | 1010.5 |
| 20260504025721 | 40 | 331 | 2.0 | 2.0 | 0.00 | 0.00 | 0.00 | 81 | 1010.3 |
| 20260504025217 | 41 | 32 | 2.0 | 3.0 | 0.00 | 0.00 | 0.00 | 80 | 1010.2 |
| 20260504024714 | 42 | 6 | 3.0 | 3.0 | 0.00 | 0.00 | 0.00 | 79 | 1010.3 |
| 20260504024211 | 43 | 17 | 2.0 | 3.0 | 0.00 | 0.00 | 0.00 | 75 | 1010.2 |
| 20260504023708 | 44 | 235 | 1.0 | 3.0 | 0.00 | 0.00 | 0.00 | 72 | 1010.4 |
| 20260504023203 | 43 | 238 | 4.0 | 5.0 | 0.00 | 0.00 | 0.00 | 76 | 1010.5 |
| 20260504022700 | 42 | 226 | 3.0 | 3.0 | 0.00 | 0.00 | 0.00 | 81 | 1010.4 |
| 20260504022156 | 42 | 118 | 3.0 | 4.0 | 0.00 | 0.00 | 0.00 | 78 | 1010.5 |
| 20260504021654 | 44 | 119 | 5.0 | 5.0 | 0.00 | 0.00 | 0.00 | 74 | 1010.1 |
| 20260504021150 | 44 | 73 | 1.0 | 2.0 | 0.00 | 0.00 | 0.00 | 72 | 1010.0 |
| 20260504020648 | 44 | 26 | 1.0 | 2.0 | 0.00 | 0.00 | 0.00 | 71 | 1010.0 |
| 20260504020143 | 44 | 213 | 1.0 | 2.0 | 0.00 | 0.00 | 0.00 | 71 | 1009.9 |
| 20260504015641 | 44 | 66 | 0.0 | 1.0 | 0.00 | 0.00 | 0.00 | 72 | 1009.8 |
| 20260504015137 | 44 | 64 | 2.0 | 3.0 | 0.00 | 0.00 | 0.00 | 73 | 1009.8 |
| 20260504014632 | 44 | 53 | 1.0 | 2.0 | 0.00 | 0.00 | 0.00 | 69 | 1009.6 |
| 20260504014130 | 45 | 159 | 0.0 | 0.0 | 0.00 | 0.00 | 0.00 | 68 | 1009.8 |
| 20260504013627 | 45 | 165 | 0.0 | 1.0 | 0.00 | 0.00 | 0.00 | 69 | 1009.6 |
| 20260504013124 | 46 | 77 | 0.0 | 2.0 | 0.00 | 0.00 | 0.00 | 66 | 1009.7 |
| 20260504012621 | 47 | 91 | 1.0 | 2.0 | 0.00 | 0.00 | 0.00 | 64 | 1009.6 |
| 20260504012120 | 47 | 59 | 2.0 | 3.0 | 0.00 | 0.00 | 0.00 | 60 | 1009.5 |
| 20260504011616 | 48 | 33 | 2.0 | 3.0 | 0.00 | 0.00 | 0.00 | 58 | 1009.5 |